Home > Weather > Palm Springs > Past weeks

Flag for USA Weather for the Past 2 Weeks in Palm Springs, California, USA

Now
67 °F

Clear.


Feels Like: 67 °F
Forecast: 60 / 78 °F
Wind: 5 mph from Northwest

Location: Palm Springs Regional Airport

Current Time: Apr 30, 2016 at 2:22:44 AM

Latest Report: Apr 30, 2016 at 12:53 AM


Visibility: 10 mi

Pressure: 29.71 "Hg

Humidity: 47%

Dew Point: 46 °F

Location of Palm SpringsLocation

Historic Weather in Palm Springs — Graph

°F

Palm Springs Temperature Yesterday

Maximum temperature yesterday: 85 °F (at 3:53 PM)
Minimum temperature yesterday: 59 °F (at 5:53 AM)
Average temperature yesterday: 72 °F

High & Low Weather Summary for the Past Weeks

 TemperatureHumidityPressure
High98 °F (Apr 20, 3:53 PM)74% (Apr 26, 5:53 AM)30.09 "Hg (Apr 26, 5:53 AM)
Low51 °F (Apr 26, 5:53 AM)5% (Apr 20, 12:53 PM)29.61 "Hg (Apr 27, 5:53 PM)
Average75 °F24%29.85 "Hg
* Reported Apr 15 12:53 AM — Apr 30 12:53 AM, Palm Springs, Weather by CustomWeather, © 2016

Note: Actual official high and low records may vary slightly from our data, if they occured in-between our weather recording intervals... More about our weather records

Advertising

Palm Springs Weather History for the Previous 24 Hours

Scroll right to see more
 ConditionsComfort  
Time TempWeatherWind HumidityBarometerVisibility
12:53 AM
Sat, Apr 30
67 °FClear.5 mph47%29.71 "Hg10 mi
11:53 PM
Fri, Apr 29
67 °FClear.5 mph49%29.72 "Hg10 mi
10:53 PM70 °FClear.6 mph41%29.73 "Hg10 mi
9:53 PM73 °FClear.6 mph36%29.75 "Hg10 mi
8:53 PM75 °FClear.18 mph30%29.74 "Hg10 mi
7:53 PM77 °FSunny.15 mph28%29.74 "Hg10 mi
6:53 PM79 °FScattered clouds.15 mph29%29.74 "Hg10 mi
5:53 PM82 °FPassing clouds.13 mph24%29.75 "Hg10 mi
4:53 PM84 °FScattered clouds.18 mph23%29.77 "Hg10 mi
3:53 PM85 °FScattered clouds.13 mph21%29.78 "Hg10 mi
2:53 PM84 °FSunny.12 mph21%29.81 "Hg10 mi
1:53 PM81 °FSunny.5 mph23%29.84 "Hg10 mi
12:53 PM82 °FScattered clouds.14 mph24%29.86 "Hg10 mi
11:53 AM79 °FSunny.13 mph26%29.90 "Hg10 mi
10:53 AM74 °FScattered clouds.12 mph32%29.90 "Hg10 mi
9:53 AM72 °FSunny.9 mph35%29.91 "Hg10 mi
8:53 AM68 °FScattered clouds.10 mph39%29.91 "Hg10 mi
7:53 AM63 °FSunny.5 mph50%29.91 "Hg10 mi
6:53 AM63 °FClear.3 mph48%29.88 "Hg10 mi
5:53 AM59 °FClear.No wind58%29.86 "Hg10 mi
4:53 AM60 °FClear.No wind53%29.85 "Hg10 mi
3:53 AM62 °FClear.No wind48%29.86 "Hg10 mi
2:53 AM64 °FClear.9 mph45%29.85 "Hg10 mi
Weather by CustomWeather, © 2016

See weather overviewHow to use our weather pages